Location: Gleizolles
(44.4833°N, 6.7667°E)
Time: 14:22:34
(UTC+00:00)

FREGAT/IRIS - Pass Details

Date: 09 April 2020
Orbit: 327 x 333 km, 96.9° (Epoch: 27 May)

Event Time Altitude Azimuth Distance (km) Brightness Sun altitude
Exits shadow 19:06:02 - 169° (S) 1,763 5.6 -10.3°
Reaches altitude 10° 19:07:08 10° 170° (S) 1,280 4.9 -10.4°
Maximum altitude 19:09:51 81° 256° (WSW) 350 2.4 -10.9°
Drops below altitude 10° 19:12:37 10° 346° (NNW) 1,300 5.8 -11.3°
Sets 19:14:32 0° 348° (NNW) 2,148 6.9 -11.7°
